Hauptseite
METAR-TAF:

METAR-TAF

Flughäfen :

Troyes, Frankreich

Breite: 48-20N, Länge: 004-01E, Höhe: 118 m

Beobachtung

Neuester Wetterbericht von vor 27 Minuten, um 13:00 UTC
Wind 9 kt aus West/Südwest, variierte zwischen Süd/Südwest und Nordwest
Temperatur 27°C
Luftfeuchtigkeit 42%
Luftdruck 1017 hPa
Sichtweite 10 km oder mehr

METAR: LFQB 171300Z AUTO 25009KT 210V320 9999 ////// 27/13 Q1017

Zeit: 15:27 (13:27 UTC)


TAF: fehlend

Wetterbeobachtungen und Prognosen von mehr als 4000 Flughäfen (METAR und TAF Bericht).

Die verfügbaren Stationen werden durch gelbe und rote Markierungen auf der Karte dargestellt.

Führen Sie die Maus auf sie, um den Namen der Station zu sehen.

Darauf klicken, um die Beobachtung von Wetterbeobachtungen und Prognosen zu sehen.

Um die Karte zu ändern : klicken Sie auf den grünen Tasten mit einem schwarzen Kreuz Zum Vergrößern, auf den grünen Button mit einem Gedankenstrich zu verkleinern, oder auf die grünen Pfeile für benachbarte Karten.


METAR-TAF: